SCP
0 0 0 0 0 0 0 0 0 0 0 0 0 0 0 0 0 0 0 0 0 0 0 0 0 0 0 0 0 0 0 0 0 0 0 0 0 0 0 0 0 0 0 0
0 0 0 0 0 0 0 0 0 0 0 0 0 0 0 0 0 0 0 0 0 0 0 0 0 0 0 0 0 0 0 0 0 0 0 0 0 0 0 0 0 0 0 0
0 0 0 0 0 0 0 0 0 0 0 0 0 0 0 0 0 0 0 0 0 0 0 0 0 0 0 0 0 0 0 0 0 0 0 0 0 0 0 0 0 0 0 0
0 0 0 0 0 0 0 0 0 0 0 0 0 0 0 0 0 0 0 0 0 0 0 0 0 0 0 0 0 0 0 0 0 0 0 0 0 0 0 0 0 -0 -0 0
0 0 0 0 0 0 0 0 0 0 0 0 0 0 0 0 0 0 0 0 0 0 0 0 0 0 0 0 0 0 0 0 0 0 0 0 0 0 0 0 0 0 0 0
0 0 0 0 0 0 0 0 0 0 0 0 0 0 0 0 0 0 0 0 0 0 0 0 0 0 0 0 0 0 0 0 0 0 0 0 0 0 0 0 0 0 0 0
0 0 0 0 0 0 0 0 0 0 0 0 0 0 0 0 0 0 0 0 0 0 0 0 0 0 0 0 0 0 0 0 0 0 0 0 0 0 0 0 0 0 0 0
0 0 0 0 0 0 0 0 0 0 0 0 0 0 0 0 0 0 0 0 0 0 0 0 0 0 0 0 0 0 0 0 0 0 0 0 0 0 0 0 0 0 0 0
0 0 0 0 0 0 0 0 0 0 0 0 0 0 0 0 0 0 0 0 0 0 0 0 0 0 0 0 0 0 0 0 0 0 0 0 0 0 0 0 0 0 0 0
0 0 0 0 0 0 0 0 0 0 0 0 0 0 0 0 0 0 0 0 0 0 0 0 0 0 0 0 0 0 0 0 0 0 0 0 0 0 0 0 0 -0 0 0
0 0 0 0 0 0 0 0 0 0 0 0 0 0 0 0 0 0 0 0 0 0 0 0 0 0 0 0 0 0 0 0 0 0 0 0 0 0 0 -0 -0 -0 0 0
0 0 0 0 0 0 0 0 0 0 0 0 0 0 0 0 0 0 0 0 0 0 0 0 0 0 0 0 0 0 0 0 0 0 0 0 0 0 0 -0 -0 -0 0 0
0 0 0 0 0 0 0 0 0 0 0 0 0 0 0 0 0 0 0 0 0 -0 0 0 0 0 0 0 0 0 -0 -0 0 -0 -0 -0 -0 -0 -0 0 0 0 0 0
0 0 0 0 0 0 0 0 0 0 0 0 0 0 0 0 0 0 0 0 0 0 -0 -0 -0 0 0 0 0 -0 -0 -0 -0 0 0 0 -0 -0 -0 0 0 0 0 0
0 0 0 0 0 0 0 0 0 0 0 0 0 0 0 0 0 0 0 0 0 0 0 0 -0 -0 -0 -0 0 0 -0 -0 0 0 0 0 0 0 0 0 0 0 0 0
0 0 0 0 0 0 0 0 0 0 0 0 0 0 0 0 0 0 0 0 0 0 0 0 0 -0 -0 -0 0 0 0 -0 0 0 0 0 0 0 0 0 0 0 0 0
0 0 0 0 0 0 0 0 0 0 0 0 0 0 0 0 0 0 0 0 0 -0 0 0 0 0 -0 -0 -0 0 -0 -0 -0 0 0 0 0 -0 0 0 0 0 0 0
0 0 0 0 0 0 0 -0 0 0 0 0 0 0 0 0 0 0 0 0 0 -0 0 0 0 0 -0 0 0 0 -0 -0 -0 0 0 0 0 -0 0 0 0 0 0 0
0 0 0 0 0 0 0 0 0 0 0 0 0 0 0 0 0 0 0 0 0 0 -0 0 0 0 0 0 0 0 0 0 0 0 0 0 0 -0 0 0 0 0 0 0
0 0 0 0 0 0 0 0 0 0 0 0 0 0 0 0 0 0 0 0 0 0 -0 0 0 0 0 0 0 0 0 0 0 0 0 0 0 0 -0 0 0 0 0 0
0 0 0 0 0 0 0 0 0 0 0 0 0 0 0 0 0 0 0 0 0 -0 -0 0 0 0 0 0 0 0 0 0 0 0 0 0 0 -0 -0 -0 -0 0 0 0
0 0 0 0 0 0 0 0 0 0 0 0 0 0 0 0 0 0 0 -0 -0 -0 -0 0 0 0 0 0 0 0 0 0 0 0 0 0 0 -0 -0 -0 -0 0 0 0
0 0 0 0 0 0 0 0 0 0 0 0 0 0 0 0 0 -0 -0 -0 -0 -0 0 0 0 0 0 0 0 0 0 -0 0 0 0 0 -0 -0 -0 -0 -0 0 0 0
0 0 0 0 0 0 0 0 0 0 0 0 0 0 0 0 -0 -0 -0 -0 -0 -0 0 0 0 0 0 0 0 0 0 0 0 0 -0 -0 -0 -0 -0 -0 -0 0 0 0
0 0 0 0 0 0 0 0 0 0 0 0 0 0 0 0 0 0 0 -0 -0 -0 0 0 0 0 0 0 0 0 0 0 0 0 0 0 0 -0 -0 -0 -0 0 0 0
0 0 0 0 0 0 0 0 0 0 0 0 0 0 0 0 0 0 0 0 0 0 0 0 0 0 0 0 0 0 0 0 0 0 0 0 0 0 0 0 0 0 0 0
0 0 0 0 -0 -0 0 0 0 0 0 0 0 0 0 0 0 0 0 0 0 0 0 0 0 0 0 0 0 0 0 0 0 0 0 0 0 0 0 0 0 0 0 0
Wind_Speed
4 4 2 3 4 4 6 7 7 7 6 6 7 8 9 8 8 7 6 5 4 4 3 4 5 5 6 6 6 6 7 8 8 8 8 9 10 10 10 10 10 9 10 10
3 2 2 4 4 3 4 4 4 3 4 1 6 8 8 8 8 7 6 5 4 4 4 4 5 5 6 6 6 7 8 8 8 8 9 9 9 9 10 10 9 9 10 9
3 5 3 4 3 3 3 3 4 5 3 7 7 8 9 9 8 7 7 6 5 4 4 4 4 4 5 5 6 7 7 8 8 8 9 9 9 10 9 9 9 9 9 9
1 3 3 6 2 3 2 2 2 2 4 7 7 7 5 6 8 8 7 7 5 4 4 4 4 4 5 6 6 7 7 8 8 8 9 9 9 9 8 7 8 7 8 8
2 1 6 5 1 2 2 3 2 5 8 8 10 7 4 4 6 7 7 6 5 5 5 4 5 5 6 6 6 7 7 7 7 7 8 8 8 8 6 7 7 6 6 7
2 1 4 4 3 0 2 4 2 7 10 11 8 4 4 6 8 9 8 7 6 6 5 5 4 5 6 6 6 7 7 7 7 7 7 8 8 7 6 6 6 7 8 7
3 3 6 4 4 0 1 5 3 7 10 10 5 3 7 10 8 9 8 7 7 7 5 4 4 5 6 6 5 5 6 7 7 7 7 7 7 6 6 7 7 7 8 7
3 2 5 4 2 1 4 0 4 6 7 7 7 9 11 11 10 10 9 8 7 7 5 4 5 6 6 5 5 5 6 7 7 6 6 6 7 6 6 6 7 6 6 6
5 6 4 2 2 1 2 3 4 6 8 10 10 10 11 10 10 9 9 8 6 7 6 5 4 5 6 4 5 6 6 7 6 7 6 5 6 6 5 5 5 4 5 5
3 4 3 2 1 2 3 4 6 9 10 10 11 12 11 11 9 9 8 7 7 7 7 5 4 5 5 4 5 7 7 6 6 6 6 6 4 4 4 4 4 4 4 3
3 3 2 3 3 3 6 8 10 9 8 11 13 13 11 10 10 8 7 6 6 7 6 5 5 5 4 5 6 7 7 6 6 6 6 6 5 4 3 2 2 4 3 3
4 4 3 1 1 4 7 8 10 11 9 9 11 13 11 10 8 8 8 7 7 6 6 5 5 5 4 5 7 7 6 5 4 4 4 5 5 5 9 6 6 5 5 4
3 1 2 3 3 4 6 8 8 10 11 11 9 11 11 9 8 8 8 8 7 7 6 6 5 5 4 5 6 6 6 5 4 4 4 4 4 4 4 6 9 8 6 5
3 4 3 3 4 6 9 10 10 10 10 11 10 11 10 9 9 9 8 7 7 7 6 6 5 4 4 5 6 6 5 5 4 3 3 3 3 3 3 4 3 3 4 4
1 3 5 6 8 9 10 11 12 11 10 10 10 11 11 10 9 8 7 7 7 7 6 5 5 3 3 5 6 5 4 3 3 3 3 3 3 3 3 3 3 2 1 2
5 7 9 10 10 10 10 11 11 10 10 10 10 9 9 9 9 8 7 8 8 7 5 5 4 4 4 5 6 4 3 5 4 3 3 3 3 3 2 2 2 1 1 0
7 7 8 9 10 9 9 9 10 11 10 11 10 10 10 9 8 7 7 6 7 6 5 5 4 4 5 5 5 4 3 4 5 3 2 2 2 2 2 2 2 1 1 1
7 8 9 11 11 10 9 9 10 11 10 10 11 10 10 10 9 8 7 6 6 4 4 4 5 5 5 5 4 4 4 3 3 3 2 2 2 2 2 2 2 2 1 1
7 8 9 9 10 10 10 9 10 9 10 10 11 10 9 8 8 7 7 7 7 5 4 4 7 6 5 5 5 4 4 3 3 2 2 2 2 2 2 2 2 2 2 2
7 9 9 9 9 9 9 9 9 9 9 10 10 9 8 7 7 7 7 6 5 5 5 6 6 5 5 5 5 3 3 3 3 2 2 2 2 2 2 2 3 3 3 2
8 9 10 10 9 9 9 10 10 10 9 10 10 10 9 7 8 7 7 5 4 4 6 8 5 4 4 4 5 3 3 3 3 3 3 3 3 2 2 3 3 3 3 3
7 8 10 10 9 8 8 9 10 10 10 9 9 9 8 8 7 6 6 5 5 7 6 5 4 5 6 6 3 3 3 3 3 3 3 3 3 3 4 4 4 4 3 3
5 7 9 9 10 9 8 8 9 10 10 10 10 10 9 8 7 7 5 4 4 8 6 5 6 9 9 5 3 3 3 4 4 4 4 4 4 4 4 5 4 4 4 4
5 6 7 8 9 9 9 8 8 8 9 9 9 9 9 7 4 4 4 7 9 9 6 7 10 10 8 4 4 3 3 4 4 4 4 4 4 4 4 4 4 4 5 5
5 6 7 9 10 8 9 8 8 7 7 6 7 8 7 7 6 6 5 7 9 9 5 7 10 10 6 4 5 5 4 4 4 4 4 4 4 5 5 5 5 5 5 5
5 6 7 8 8 7 7 8 7 6 7 6 5 5 5 5 5 6 6 7 9 9 6 5 6 7 5 5 5 5 5 5 5 5 5 5 6 6 5 6 8 6 6 6
4 4 4 4 5 7 8 8 8 8 8 8 7 6 7 6 6 6 7 6 6 6 6 5 5 6 6 6 6 6 5 5 5 5 5 5 5 6 6 8 7 6 6 7
Wind_Direction
241 251 232 243 250 201 194 200 206 244 240 237 192 168 153 145 140 134 129 117 99 82 64 50 48 52 61 59 60 65 71 74 76 76 76 76 74 72 70 69 70 69 68 65
314 310 290 263 255 228 227 218 222 249 263 112 120 126 137 145 146 144 137 125 110 95 81 66 59 62 64 61 62 69 74 75 77 78 78 77 77 76 73 69 67 68 67 67
299 318 343 281 247 214 228 216 195 222 221 136 137 149 155 156 153 149 139 130 122 108 92 81 68 68 71 68 71 74 76 79 79 80 80 78 80 77 74 71 69 67 66 69
295 2 264 252 263 196 196 246 208 161 133 145 139 126 122 142 147 143 137 131 125 114 98 84 76 73 73 71 73 77 78 79 82 84 84 81 79 77 74 73 71 70 68 70
134 255 285 297 280 178 177 273 170 138 128 117 116 99 98 125 133 134 130 126 120 113 107 98 90 87 82 75 75 79 79 80 83 87 88 87 84 80 76 77 72 67 64 67
141 193 259 275 312 212 97 294 175 145 147 147 140 144 174 147 129 122 119 119 116 110 101 99 94 93 88 81 78 77 79 81 81 84 87 88 88 85 80 81 79 76 67 59
172 224 267 285 306 63 177 266 171 152 153 156 158 153 138 133 125 123 121 119 117 112 108 108 105 99 94 88 86 86 87 86 82 82 86 90 88 86 90 88 81 75 69 57
156 207 263 327 9 175 235 226 127 138 140 129 115 116 126 129 129 127 123 118 116 112 106 99 100 101 97 94 93 91 89 86 83 82 90 95 95 90 88 92 87 79 75 62
196 220 252 300 269 282 156 135 132 133 129 126 124 129 130 130 130 128 125 121 115 115 107 95 94 101 101 96 99 99 93 90 89 86 82 89 97 98 89 86 90 85 80 72
266 271 291 308 353 55 103 122 123 128 131 130 129 134 131 131 129 126 120 120 118 117 113 104 98 100 103 100 98 100 98 93 92 91 84 77 80 91 101 105 104 99 95 88
270 283 331 9 44 91 93 104 111 113 121 131 133 136 134 133 131 127 121 118 119 121 118 111 103 100 104 109 108 102 96 91 88 89 93 84 73 62 84 88 134 133 131 126
236 230 198 236 114 119 119 124 128 123 118 128 135 135 132 130 127 127 126 122 120 119 118 115 111 103 102 111 115 111 103 98 96 99 99 101 99 74 47 61 87 105 125 127
230 162 131 122 104 106 116 120 122 123 130 129 126 129 129 126 126 125 125 127 129 129 125 121 115 109 113 117 116 116 119 118 111 109 109 106 104 106 88 52 60 72 89 106
163 125 111 125 125 114 113 111 106 106 114 123 125 125 125 123 128 133 137 138 134 129 127 128 122 116 120 120 115 114 114 118 119 116 110 104 102 104 112 113 93 50 39 64
109 133 139 123 113 112 115 115 114 116 118 119 125 130 133 135 139 140 137 133 127 126 130 131 128 129 129 128 127 126 124 124 124 119 112 107 104 102 99 101 104 93 53 29
93 100 115 123 128 129 127 127 128 134 134 131 134 137 137 136 134 134 136 139 138 144 148 143 145 148 138 130 125 123 129 142 136 130 123 120 118 118 116 117 121 125 128 7
135 138 138 141 145 144 143 142 142 143 142 141 142 138 133 130 131 137 143 148 149 152 153 151 152 143 138 137 133 131 128 136 135 129 141 148 148 152 154 155 165 184 223 240
170 165 161 158 156 151 145 141 142 144 146 145 141 139 142 146 152 154 150 139 133 134 152 158 152 141 139 140 137 136 136 138 143 150 155 164 166 166 170 180 193 207 240 269
150 150 150 150 152 150 149 148 148 147 144 143 146 151 154 155 155 150 144 144 152 165 182 166 155 148 149 153 143 136 141 145 147 156 164 168 163 167 177 189 202 215 227 240
145 146 145 146 147 147 148 147 145 145 148 148 147 148 152 156 154 151 151 165 182 181 170 161 156 156 163 161 150 147 156 160 162 165 170 175 180 187 195 203 210 220 227 239
148 149 147 149 152 153 153 151 150 151 153 155 158 163 165 163 159 155 157 179 200 168 161 163 161 163 167 162 159 158 168 173 178 180 183 189 193 199 207 214 220 226 232 240
154 153 153 152 152 154 155 154 154 153 154 159 161 159 156 157 162 164 178 186 177 164 159 167 172 177 173 164 162 172 184 189 191 192 199 200 200 206 215 221 226 230 233 236
160 159 156 158 160 156 152 156 158 159 162 165 165 165 166 167 167 168 187 195 163 168 168 180 188 185 177 169 175 186 197 203 205 207 211 211 211 212 218 226 228 228 230 233
161 162 159 152 146 149 160 168 165 165 167 168 172 170 164 162 174 190 177 170 172 173 182 191 194 192 183 179 188 200 209 213 217 219 219 219 218 219 223 227 230 231 232 235
164 158 153 153 161 170 171 162 157 158 160 167 172 173 172 171 174 184 173 173 177 177 187 197 198 194 187 188 198 208 216 219 219 218 220 222 224 224 227 229 230 232 233 235
167 170 173 177 174 166 163 163 166 168 168 171 176 177 174 171 168 165 170 178 179 184 189 190 190 192 194 200 208 214 219 225 228 227 227 228 229 229 230 232 235 234 235 237
163 162 160 161 165 165 166 170 173 176 178 178 180 181 177 174 172 175 177 179 181 189 194 195 193 194 199 206 214 219 221 225 227 228 230 230 231 231 234 234 234 234 234 237